Miscellaneous Local Product
Issued by NWS Hastings, NE

Home | Current Version | Previous Version | Text Only | Print | Product List | Glossary Off
Versions: 1 2 3 4 5 6 7 8 9 10 11 12 13 14 15 16 17 18 19 20 21 22 23 24 25 26 27 28 29 30 31 32 33 34 35 36 37 38 39 40 41 42 43 44 45 46 47 48 49 50

000
AXUS43 KGID 220802
MISGRI

GID CWA HOURLY WEATHER ROUNDUP
NATIONAL WEATHER SERVICE HASTINGS NE
200 AM CST SAT NOV 22 2014

NOTE: "FAIR" INDICATES FEW OR NO CLOUDS BELOW 12,000 FEET WITH NO
SIGNIFICANT WEATHER AND/OR OBSTRUCTIONS TO VISIBILITY.

...SOUTH CENTRAL NEBRASKA...

CITY           SKY/WX    TMP DP  RH WIND       PRES   REMARKS
GRAND ISLAND   CLOUDY    36  34  92 SW12      29.91F FOG     WCI  28
HASTINGS       CLEAR     34  31  88 S8        29.91F FOG     WCI  27
KEARNEY        CLEAR     30  28  93 S12       29.91F WCI  21
ORD            CLEAR     30  27  88 E3        29.85F
YORK           CLOUDY    36  36 100 SW12      29.92F FOG     WCI  27
AURORA         FOG       36  36 100 SW9       29.91F VSB 3/4 WCI  29
LEXINGTON      CLEAR     34  33  96 SW6       29.89F FOG     WCI  29
HOLDREGE       CLEAR     32  30  94 SW6       29.90F FOG     WCI  26
HEBRON         CLOUDY    37  34  88 SW6       29.97S FOG     WCI  33

...NEBRASKA PANHANDLE...

CITY           SKY/WX    TMP DP  RH WIND       PRES   REMARKS
CHADRON        CLEAR     24  20  84 SW7       29.79F WCI  16
ALLIANCE       CLEAR     19  15  84 W7        29.83F WCI  10
SCOTTSBLUFF    CLEAR     24  18  77 CALM      29.85F
SIDNEY         CLEAR     26  19  74 W8        29.87F WCI  18

...WESTERN AND NORTH CENTRAL NEBRASKA...

CITY           SKY/WX    TMP DP  RH WIND       PRES   REMARKS
VALENTINE      CLEAR     26  22  84 W10       29.80F WCI  16
AINSWORTH      PTCLDY    31  25  79 SW8       29.80F WCI  23
ONEILL         CLEAR     32  30  93 SW6       29.83F WCI  26
BROKEN BOW     CLEAR     28  25  88 CALM      29.85F
IMPERIAL       CLEAR     27  17  66 SW7       29.89F WCI  19
NORTH PLATTE   FOG       20  18  92 CALM      29.87F VSB 1/4
MCCOOK         CLEAR     27  24  89 SW8       29.90S WCI  19

...EASTERN NEBRASKA...

CITY           SKY/WX    TMP DP  RH WIND       PRES   REMARKS
NORFOLK        CLOUDY    37  36  96 SW10      29.87F FOG     WCI  30
SO SIOUX CITY  CLOUDY    38  35  89 S8        29.91F FOG     WCI  32
TEKAMAH        CLOUDY    37  34  89 SW8       29.94S FOG     WCI  31
COLUMBUS       CLOUDY    37  32  81 SW7       29.92F WCI  32
ALBION         CLEAR     33  30  87 S7        29.88F WCI  27
OMAHA EPPLEY   CLOUDY    37  35  92 S8        29.96F FOG     WCI  31
OFFUTT AFB     CLOUDY    36  35  95 S6        29.95F FOG     WCI  31
MILLARD        CLOUDY    37  35  92 S3        29.96F FOG
LINCOLN        CLOUDY    38  34  85 S8        29.96F FOG     WCI  32
NEBRASKA CITY  FOG       36  36 100 S8        29.97F VSB 1   WCI  29
BEATRICE       CLOUDY    37  37  99 SW8       29.97F FOG     WCI  31
FALLS CITY     CLOUDY    38  37  97 S7        29.99S FOG     WCI  33

...NORTHERN KANSAS...

CITY           SKY/WX    TMP DP  RH WIND       PRES   REMARKS
GOODLAND       CLEAR     32  19  58 SW9       29.93F WCI  24
HILL CITY      FAIR      26  26 100 CALM      29.93F FOG
NORTON         SUNNY     28  25  86 SW6       29.89F FOG     WCI  22
PHILLIPSBURG   CLEAR     30  30 100 CALM      29.94F FOG
SMITH CENTER   CLOUDY    36  34  93 S7        29.94F FOG     WCI  30
BELOIT         CLOUDY    37  37 100 SE6       29.97F WCI  33
HAYS           MOCLDY    34  27  75 S6        29.97S WCI  29
RUSSELL        FOG       34  34 100 S14       29.96S VSB 3/4 WCI  25
CONCORDIA      CLOUDY    39  38  96 S10       29.98F FOG     WCI  32
SALINA         CLOUDY    42  40  92 S13       30.01F FOG
TOPEKA         CLOUDY    42  41  96 W5        30.02F FOG



USA.gov is the U.S. government's official web portal to all federal, state and local government web resources and services.